Location: Big Meadows
(38.5260°N, 78.4400°W)
Time: 13:09:48
(UTC-05:00)

Amateur Radio Satellites - All Passes

Search period start: 28 January 2015 12:39
Search period end: 29 January 2015 12:39
Location: Big Meadows, 38.5260°N, 78.4400°W

Satellite Date Start Highest point End Downlink Frequencies (MHz)
Time Altitude Azimuth
CUBEBUG 1 28 Jan 12:43:37 12:46:46 19° 292° (WNW) 12:49:46 437.445
PCSat 28 Jan 12:44:36 12:48:35 21° 47° (NE) 12:52:41 145.827
Oscar 19 28 Jan 12:47:51 12:53:01 71° 75° (ENE) 12:58:14 437.125/150
PHONESAT 2.4 28 Jan 12:49:24 12:53:01 67° 7° (N) 12:56:40 2401.200-2431.200
ITAMSAT 1 28 Jan 13:02:15 13:06:50 34° 70° (ENE) 13:11:31 435.822/435.867
SWISSCUBE 28 Jan 13:08:38 13:12:52 31° 96° (E) 13:17:08 437.505
TISAT 1 28 Jan 13:13:17 13:17:10 33° 289° (WNW) 13:20:59 437.305
AIST 2 28 Jan 13:22:13 13:25:35 22° 248° (WSW) 13:28:49 435.215
BEESAT 28 Jan 13:24:26 13:28:58 42° 98° (E) 13:33:30 436.000
ITUPSAT 1 28 Jan 13:27:38 13:32:13 44° 99° (E) 13:36:48 437.325
VERMONT LUNAR 28 Jan 13:35:01 13:38:30 61° 201° (SSW) 13:41:59 437.305
Gurwin Techsat 1B 28 Jan 13:52:38 13:57:53 69° 74° (ENE) 14:03:12 435.225
RS-15 28 Jan 13:54:22 14:05:39 66° 54° (NE) 14:17:31 29.354- 29.394
GONETS M04 28 Jan 13:57:18 14:05:14 40° 272° (W) 14:13:02
STARS 28 Jan 13:59:49 14:01:08 11° 89° (E) 14:02:43 437.465
KKS-1 28 Jan 14:02:19 14:05:34 20° 93° (E) 14:08:54 437.445
DANDE 28 Jan 14:21:27 14:25:45 18° 59° (ENE) 14:29:38 436.750
PCSat 28 Jan 14:27:07 14:32:28 59° 246° (WSW) 14:37:46 145.827
PHONESAT 2.4 28 Jan 14:28:02 14:31:35 48° 204° (SSW) 14:35:07 2401.200-2431.200
AO-7 28 Jan 14:30:23 14:37:55 40° 63° (ENE) 14:45:35 29.400- 29.500
Oscar 19 28 Jan 14:30:42 14:33:00 12° 272° (W) 14:34:59 437.125/150
ITAMSAT 1 28 Jan 14:42:01 14:46:24 27° 265° (W) 14:50:44 435.822/435.867
SWISSCUBE 28 Jan 14:46:40 14:50:38 26° 292° (WNW) 14:54:31 437.505
HORYU 2 28 Jan 14:47:29 14:51:59 78° 76° (ENE) 14:56:31 437.375
CUSAT 1 28 Jan 14:54:55 15:00:43 38° 70° (ENE) 15:05:12 437.405
JAS-2 28 Jan 14:56:17 14:59:33 17° 66° (ENE) 15:02:56 435.910
BEESAT 28 Jan 15:03:06 15:06:34 20° 293° (WNW) 15:09:53 436.000
ITUPSAT 1 28 Jan 15:06:27 15:09:50 19° 294° (WNW) 15:13:03 437.325
VERMONT LUNAR 28 Jan 15:14:12 15:16:13 14° 214° (SW) 15:18:10 437.305
AUBIESAT-1 28 Jan 15:15:19 15:18:01 23° 101° (ESE) 15:20:51 437.475
STARS 28 Jan 15:33:42 15:38:06 59° 285° (WNW) 15:42:26 437.465
Gurwin Techsat 1B 28 Jan 15:35:51 15:38:29 13° 272° (W) 15:40:49 435.225
KKS-1 28 Jan 15:38:14 15:42:21 35° 289° (WNW) 15:46:23 437.445
DANDE 28 Jan 16:03:39 16:10:17 62° 266° (W) 16:15:09 436.750
RS-15 28 Jan 16:07:34 16:17:34 35° 252° (WSW) 16:27:36 29.354- 29.394
PHONESAT 2.4 28 Jan 16:08:41 16:09:40 11° 216° (SW) 16:10:31 2401.200-2431.200
M-CUBED/EXP-1 PRIME 28 Jan 16:15:54 16:19:01 38° 291° (WNW) 16:22:12 437.505
AO-7 28 Jan 16:22:41 16:30:39 45° 261° (W) 16:38:32 29.400- 29.500
O/OREOS (USA 219) 28 Jan 16:34:55 16:39:24 82° 291° (WNW) 16:43:56 437.305
CUSAT 1 28 Jan 16:38:38 16:43:20 23° 276° (W) 16:47:00 437.405
Cubesat XI-IV 28 Jan 16:38:41 16:42:34 22° 66° (ENE) 16:46:37 437.490
JAS-2 28 Jan 16:38:52 16:44:24 56° 259° (W) 16:49:34 435.910
AUBIESAT-1 28 Jan 16:50:40 16:52:53 16° 295° (WNW) 16:55:02 437.475
CUTE-I 28 Jan 16:58:05 17:02:42 32° 69° (ENE) 17:07:25 437.470
MOZHAYETS 4 28 Jan 17:10:30 17:15:06 88° 105° (ESE) 17:19:40
PRISM 28 Jan 17:48:13 17:51:12 20° 94° (E) 17:54:19 437.425
SO-50 28 Jan 18:05:12 18:07:52 15° 40° (NE) 18:10:41 436.795
Cubesat XI-IV 28 Jan 18:17:17 18:22:24 46° 261° (W) 18:27:31 437.490
JUGNU 28 Jan 18:22:22 18:23:56 11° 174° (S) 18:25:34 437.505
CUTE-I 28 Jan 18:38:06 18:42:47 30° 265° (W) 18:47:25 437.470
STRAND 1 28 Jan 18:48:35 18:53:33 47° 99° (E) 18:58:30 437.568
YUBILEINY 28 Jan 18:57:33 19:05:10 37° 87° (E) 19:13:00 435.215
CUBESAT XI-V 28 Jan 19:00:38 19:05:21 86° 282° (WNW) 19:10:03 437.345
HO-68 28 Jan 19:08:14 19:14:12 31° 64° (ENE) 19:20:19 435.675
GOMX 1 28 Jan 19:19:43 19:23:23 21° 66° (ENE) 19:27:22 467.674
BRITE-PL 28 Jan 19:19:52 19:24:07 29° 68° (ENE) 19:28:45 437.365/2234.400
PRISM 28 Jan 19:23:08 19:26:48 30° 289° (WNW) 19:30:26 437.425
CINEMA 3 28 Jan 19:30:58 19:31:36 10° 62° (ENE) 19:32:33 145.822/145.860
COMPASS 1 28 Jan 19:32:23 19:34:56 16° 68° (ENE) 19:37:39 437.405
DOVE 4 28 Jan 19:35:20 19:39:01 21° 67° (ENE) 19:42:59 437.250
CANX-2 28 Jan 19:43:07 19:46:58 33° 72° (ENE) 19:50:51 2200.000
SO-50 28 Jan 19:44:12 19:49:09 88° 240° (WSW) 19:54:04 436.795
AAUSAT CUBESAT 2 28 Jan 19:58:10 20:01:42 27° 71° (ENE) 20:05:18 437.432
DELFI C3 28 Jan 20:00:23 20:01:07 11° 66° (ENE) 20:02:05 145.870
CUTE 1.7 + AOD 2 28 Jan 20:06:58 20:11:11 57° 75° (ENE) 20:15:25 437.475
Oscar 11 28 Jan 20:07:23 20:10:14 18° 68° (ENE) 20:13:13 145.826/435.025
JUGNU 28 Jan 20:10:08 20:12:05 12° 184° (S) 20:14:01 437.505
STRAND 1 28 Jan 20:28:40 20:32:27 20° 294° (WNW) 20:36:05 437.568
SEEDS 28 Jan 20:38:33 20:42:48 71° 258° (WSW) 20:47:04 437.485
UKube-1 28 Jan 20:41:41 20:45:10 25° 69° (ENE) 20:48:45 .
CUBEBUG 2 28 Jan 20:43:46 20:47:58 33° 71° (ENE) 20:52:16 437.445
SRMSAT 28 Jan 20:48:50 20:51:05 12° 179° (S) 20:53:21 437.500
YUBILEINY 28 Jan 20:53:39 21:01:54 45° 286° (WNW) 21:10:05 435.215
ZACube-1 28 Jan 20:54:33 20:58:30 29° 71° (ENE) 21:02:32 437.345
HO-68 28 Jan 20:54:46 21:01:41 50° 260° (W) 21:08:35 435.675
GOMX 1 28 Jan 20:56:21 21:01:09 46° 263° (W) 21:06:16 467.674
BRITE-PL 28 Jan 20:58:06 21:02:34 32° 266° (W) 21:07:18 437.365/2234.400
DX 1 28 Jan 21:01:01 21:05:06 42° 72° (ENE) 21:09:15 434.975-435.025
CINEMA 3 28 Jan 21:03:11 21:08:06 89° 79° (ENE) 21:13:10 145.822/145.860
HUMSAT D 28 Jan 21:03:36 21:06:40 20° 69° (ENE) 21:09:52 437.325/437.525
COMPASS 1 28 Jan 21:06:24 21:10:24 40° 262° (W) 21:14:23 437.405
FUNcube-1 28 Jan 21:06:25 21:10:39 39° 72° (ENE) 21:14:57 145.935
DOVE 4 28 Jan 21:11:41 21:16:27 45° 263° (W) 21:21:28 437.250
CANX-2 28 Jan 21:19:52 21:23:01 19° 267° (W) 21:26:04 2200.000
ISS 28 Jan 21:22:50 21:25:42 29° 134° (SE) 21:28:36 145.825
AISAT 28 Jan 21:22:53 21:26:36 27° 70° (ENE) 21:30:25 437.250
UWE-3 28 Jan 21:24:41 21:29:20 76° 77° (ENE) 21:34:04 435.000/436.395/437.385
ESTCUBE 1 28 Jan 21:25:47 21:27:36 13° 65° (ENE) 21:29:38 437.505/2401.250
DELFI C3 28 Jan 21:31:52 21:35:55 60° 260° (W) 21:39:58 145.870
AAUSAT CUBESAT 2 28 Jan 21:33:59 21:37:22 23° 266° (W) 21:40:40 437.432
Oscar 11 28 Jan 21:42:05 21:46:10 38° 262° (W) 21:50:15 145.826/435.025
CUTE 1.7 + AOD 2 28 Jan 21:46:12 21:47:34 11° 271° (W) 21:48:39 437.475
VELOX 1 28 Jan 21:50:50 21:55:07 54° 74° (ENE) 21:59:29 145.980
CUBEBUG 1 28 Jan 22:01:47 22:05:26 27° 70° (ENE) 22:09:10 437.445
QB50P2 28 Jan 22:05:59 22:07:43 13° 90° (E) 22:09:42 145.880/145.840
QB50P1 28 Jan 22:14:50 22:17:24 16° 91° (E) 22:20:09 145.935-145.965
UKube-1 28 Jan 22:17:34 22:21:16 27° 264° (W) 22:24:56 .
50 SAT 28 Jan 22:19:43 22:23:51 76° 258° (WSW) 22:28:01 437.505
CUBEBUG 2 28 Jan 22:20:51 22:24:43 24° 267° (W) 22:28:33 437.445
UNISAT 6 28 Jan 22:25:04 22:29:11 36° 97° (E) 22:33:12 437.425
POLYITAN 1 28 Jan 22:28:32 22:31:58 23° 94° (E) 22:35:27 437.675
BUGSAT 1 28 Jan 22:29:31 22:32:23 18° 92° (E) 22:35:23 437.445
TISAT 1 28 Jan 22:30:42 22:32:37 13° 66° (ENE) 22:34:44 437.305
ZACube-1 28 Jan 22:31:01 22:34:52 25° 266° (W) 22:38:40 437.345
HUMSAT D 28 Jan 22:38:16 22:42:16 35° 263° (W) 22:46:15 437.325/437.525
DX 1 28 Jan 22:38:54 22:41:37 16° 268° (W) 22:44:10 434.975-435.025
FUNcube-1 28 Jan 22:43:49 22:47:10 19° 268° (W) 22:50:24 145.935
AIST 1 28 Jan 22:45:59 22:50:21 90° 79° (E) 22:54:43
POPSAT HIP 1 28 Jan 22:48:27 22:52:29 38° 98° (E) 22:56:30 437.405
DUCHIFAT 1 28 Jan 22:51:25 22:55:30 41° 98° (E) 22:59:33 145.980
ISS 28 Jan 22:59:15 23:02:11 29° 330° (NNW) 23:05:08 145.825
AISAT 28 Jan 22:59:29 23:03:13 25° 265° (W) 23:06:53 437.250
ESTCUBE 1 28 Jan 22:59:36 23:04:02 61° 259° (W) 23:08:29 437.505/2401.250
ANTELSAT 28 Jan 23:00:46 23:05:15 86° 283° (WNW) 23:09:36 437.575/2403.000
TIGRISAT 28 Jan 23:08:54 23:13:21 72° 284° (WNW) 23:17:40 435.000
SPROUT 28 Jan 23:24:52 23:29:03 54° 74° (ENE) 23:33:18 437.525
NANOSAT C BR1 28 Jan 23:25:44 23:30:03 77° 284° (WNW) 23:34:18 145.865
VELOX 1 28 Jan 23:30:04 23:32:08 13° 270° (W) 23:33:58 145.980
CUBEBUG 1 28 Jan 23:38:15 23:41:49 24° 266° (W) 23:45:20 437.445
QB50P2 28 Jan 23:39:49 23:44:02 51° 286° (WNW) 23:48:11 145.880/145.840
QB50P1 28 Jan 23:49:28 23:53:32 40° 287° (WNW) 23:57:32 145.935-145.965
UNISAT 6 29 Jan 00:02:32 00:05:45 19° 293° (WNW) 00:08:47 437.425
TISAT 1 29 Jan 00:03:55 00:08:03 52° 261° (W) 00:12:14 437.305
BUGSAT 1 29 Jan 00:04:06 00:08:03 36° 288° (WNW) 00:11:56 437.445
POLYITAN 1 29 Jan 00:04:12 00:07:55 28° 290° (WNW) 00:11:33 437.675
SWISSCUBE 29 Jan 00:14:08 00:18:16 31° 70° (ENE) 00:22:28 437.505
POPSAT HIP 1 29 Jan 00:25:11 00:28:08 18° 292° (WNW) 00:30:55 437.405
DUCHIFAT 1 29 Jan 00:28:18 00:31:04 16° 293° (WNW) 00:33:41 145.980
BEESAT 29 Jan 00:29:41 00:34:07 41° 72° (ENE) 00:38:37 436.000
ITUPSAT 1 29 Jan 00:33:12 00:37:41 44° 72° (ENE) 00:42:14 437.325
ISS 29 Jan 00:39:13 00:39:34 10° 349° (N) 00:39:52 145.825
GONETS M04 29 Jan 00:59:16 01:07:34 50° 90° (E) 01:15:54
KKS-1 29 Jan 01:00:01 01:02:44 16° 66° (ENE) 01:05:36 437.445
Oscar 19 29 Jan 01:01:29 01:05:49 28° 95° (E) 01:10:14 437.125/150
SPROUT 29 Jan 01:03:48 01:05:35 12° 271° (W) 01:07:04 437.525
O/OREOS (USA 219) 29 Jan 01:08:23 01:11:02 15° 54° (NE) 01:13:51 437.305
ITAMSAT 1 29 Jan 01:18:06 01:20:22 13° 89° (E) 01:22:57 435.822/435.867
M-CUBED/EXP-1 PRIME 29 Jan 01:30:31 01:32:45 15° 65° (ENE) 01:35:02 437.505
BEESAT 2 29 Jan 01:47:02 01:50:28 27° 113° (ESE) 01:54:01 435.950
SWISSCUBE 29 Jan 01:52:13 01:56:11 25° 266° (W) 02:00:04 437.505
BEESAT 3 29 Jan 02:01:05 02:04:57 44° 116° (ESE) 02:08:56 437.485
AUBIESAT-1 29 Jan 02:02:43 02:06:15 31° 68° (ENE) 02:09:35 437.475
BEESAT 29 Jan 02:08:48 02:12:13 19° 268° (W) 02:15:29 436.000
Gurwin Techsat 1B 29 Jan 02:10:43 02:15:21 31° 95° (E) 02:20:04 435.225
ITUPSAT 1 29 Jan 02:12:35 02:15:52 18° 268° (W) 02:18:58 437.325
CUSAT 1 29 Jan 02:23:13 02:24:02 10° 79° (ENE) 02:25:40 437.405
STARS 29 Jan 02:29:04 02:33:31 82° 257° (WSW) 02:38:01 437.465
KKS-1 29 Jan 02:34:46 02:39:03 45° 261° (W) 02:43:23 437.445
AO-7 29 Jan 02:37:41 02:39:03 11° 85° (E) 02:41:16 29.400- 29.500
Oscar 19 29 Jan 02:40:38 02:45:13 32° 291° (WNW) 02:49:42 437.125/150
HORYU 2 29 Jan 02:41:43 02:44:30 17° 92° (E) 02:47:26 437.375
O/OREOS (USA 219) 29 Jan 02:46:23 02:50:53 54° 252° (WSW) 02:55:21 437.305
ITAMSAT 1 29 Jan 02:55:16 03:00:28 68° 286° (WNW) 03:05:40 435.822/435.867
GONETS M04 29 Jan 02:56:55 03:04:44 34° 289° (WNW) 03:12:22
M-CUBED/EXP-1 PRIME 29 Jan 03:03:39 03:07:33 40° 256° (WSW) 03:11:10 437.505
AIST 2 29 Jan 03:18:01 03:22:15 75° 301° (WNW) 03:26:34 435.215
BEESAT 2 29 Jan 03:25:05 03:28:39 27° 310° (NW) 03:32:13 435.950
PCSat 29 Jan 03:25:26 03:29:24 22° 107° (ESE) 03:33:34 145.827
DANDE 29 Jan 03:28:06 03:34:58 33° 87° (E) 03:42:27 436.750
AUBIESAT-1 29 Jan 03:38:22 03:41:13 18° 260° (W) 03:43:50 437.475
BEESAT 3 29 Jan 03:40:25 03:43:21 18° 314° (NW) 03:46:13 437.485
JAS-2 29 Jan 03:48:55 03:52:44 18° 92° (E) 03:57:06 435.910
Gurwin Techsat 1B 29 Jan 03:50:39 03:55:19 31° 291° (WNW) 03:59:54 435.225
ISS 29 Jan 03:51:52 03:54:44 27° 29° (NNE) 03:57:37 145.825
CUSAT 1 29 Jan 03:57:52 04:05:45 60° 94° (E) 04:14:02 437.405
MOZHAYETS 4 29 Jan 04:10:55 04:15:29 70° 76° (ENE) 04:20:04
RS-15 29 Jan 04:16:35 04:26:41 47° 111° (ESE) 04:36:58 29.354- 29.394
HORYU 2 29 Jan 04:17:14 04:21:25 41° 288° (WNW) 04:25:33 437.375
AO-7 29 Jan 04:25:15 04:33:34 70° 104° (ESE) 04:41:51 29.400- 29.500
PRISM 29 Jan 04:38:56 04:40:45 13° 66° (ENE) 04:42:45 437.425
PCSat 29 Jan 05:07:18 05:12:32 48° 303° (WNW) 05:17:47 145.827
DANDE 29 Jan 05:10:03 05:18:04 58° 285° (WNW) 05:26:36 436.750
YUBILEINY 29 Jan 05:10:16 05:15:10 17° 61° (ENE) 05:20:37 435.215
CUTE-I 29 Jan 05:18:00 05:20:30 14° 89° (E) 05:23:19 437.470
ISS 29 Jan 05:28:15 05:31:17 33° 225° (SW) 05:34:18 145.825
JAS-2 29 Jan 05:32:35 05:38:12 60° 286° (WNW) 05:44:28 435.910
CUSAT 1 29 Jan 05:42:03 05:49:17 32° 292° (WNW) 05:56:30 437.405
MOZHAYETS 4 29 Jan 05:52:46 05:53:18 10° 272° (W) 05:53:30
CUBESAT XI-V 29 Jan 06:02:34 06:07:10 78° 76° (ENE) 06:11:48 437.345
STRAND 1 29 Jan 06:03:03 06:08:02 58° 73° (ENE) 06:13:04 437.568
PRISM 29 Jan 06:11:55 06:15:55 49° 260° (W) 06:19:55 437.425
AO-7 29 Jan 06:19:06 06:25:46 27° 302° (WNW) 06:32:10 29.400- 29.500
RS-15 29 Jan 06:28:33 06:39:04 50° 312° (NW) 06:49:39 29.354- 29.394
Cubesat XI-IV 29 Jan 06:35:43 06:41:07 80° 102° (ESE) 06:46:31 437.490
CUTE-I 29 Jan 06:55:50 07:01:11 69° 286° (WNW) 07:06:31 437.470
DANDE 29 Jan 07:00:21 07:03:41 12° 306° (NW) 07:06:22 436.750
YUBILEINY 29 Jan 07:04:44 07:13:35 86° 82° (E) 07:22:25 435.215
BRITE-PL 29 Jan 07:28:18 07:30:06 12° 85° (E) 07:32:15 437.365/2234.400
STRAND 1 29 Jan 07:44:43 07:47:42 15° 270° (W) 07:50:27 437.568
CUTE 1.7 + AOD 2 29 Jan 07:56:35 07:57:27 11° 88° (E) 07:58:35 437.475
VERMONT LUNAR 29 Jan 07:59:01 08:01:49 23° 150° (SSE) 08:04:40 437.305
Cubesat XI-IV 29 Jan 08:18:00 08:20:38 13° 298° (WNW) 08:22:58 437.490
HO-68 29 Jan 08:24:00 08:30:23 35° 96° (E) 08:36:51 435.675
SEEDS 29 Jan 08:25:30 08:28:37 21° 93° (E) 08:31:49 437.485
RS-15 29 Jan 08:47:49 08:55:10 19° 344° (NNW) 09:02:23 29.354- 29.394
COMPASS 1 29 Jan 08:51:43 08:55:30 34° 97° (E) 08:59:18 437.405
PHONESAT 2.4 29 Jan 08:56:39 08:59:56 34° 153° (SSE) 09:03:17 2401.200-2431.200
GOMX 1 29 Jan 08:59:48 09:05:11 64° 99° (E) 09:10:19 467.674
CINEMA 3 29 Jan 09:00:54 09:04:48 25° 93° (E) 09:08:38 145.822/145.860
BRITE-PL 29 Jan 09:03:44 09:09:27 84° 284° (WNW) 09:14:54 437.365/2234.400
YUBILEINY 29 Jan 09:03:52 09:09:26 18° 280° (W) 09:14:28 435.215
CANX-2 29 Jan 09:05:25 09:09:40 82° 102° (ESE) 09:13:53 2200.000
QB50P1 29 Jan 09:08:21 09:09:22 11° 65° (ENE) 09:10:39 145.935-145.965
DOVE 4 29 Jan 09:12:34 09:17:44 61° 100° (E) 09:22:37 437.250
DELFI C3 29 Jan 09:14:25 09:17:22 20° 93° (E) 09:20:25 145.870
AAUSAT CUBESAT 2 29 Jan 09:17:51 09:21:59 62° 100° (E) 09:26:04 437.432
UWE-3 29 Jan 09:17:53 09:20:43 17° 91° (E) 09:23:39 435.000/436.395/437.385
BUGSAT 1 29 Jan 09:20:41 09:21:34 11° 65° (ENE) 09:22:43 437.445
POLYITAN 1 29 Jan 09:21:25 09:23:59 16° 67° (ENE) 09:26:44 437.675
UNISAT 6 29 Jan 09:22:40 09:26:43 30° 71° (ENE) 09:30:51 437.425
CUTE 1.7 + AOD 2 29 Jan 09:29:41 09:33:51 56° 285° (WNW) 09:37:57 437.475
Oscar 11 29 Jan 09:30:48 09:34:51 40° 98° (E) 09:38:55 145.826/435.025
VERMONT LUNAR 29 Jan 09:36:11 09:39:40 88° 174° (S) 09:43:12 437.305
POPSAT HIP 1 29 Jan 09:40:29 09:43:57 25° 70° (ENE) 09:47:31 437.405
DUCHIFAT 1 29 Jan 09:43:06 09:46:38 26° 70° (ENE) 09:50:16 145.980
VELOX 1 29 Jan 09:45:19 09:46:46 12° 89° (E) 09:48:29 145.980
SO-50 29 Jan 09:57:37 10:01:52 42° 115° (ESE) 10:06:18 436.795
ANTELSAT 29 Jan 09:57:55 10:02:37 71° 76° (ENE) 10:07:19 437.575/2403.000
SEEDS 29 Jan 10:00:50 10:04:31 29° 289° (WNW) 10:08:06 437.485
50 SAT 29 Jan 10:02:03 10:04:28 16° 91° (E) 10:07:02 437.505
TIGRISAT 29 Jan 10:05:40 10:10:24 84° 76° (ENE) 10:15:08 435.000
UKube-1 29 Jan 10:06:00 10:10:17 55° 100° (E) 10:14:34 .
BEESAT 2 29 Jan 10:08:50 10:11:01 14° 43° (NE) 10:13:19 435.950
HO-68 29 Jan 10:11:32 10:18:13 43° 293° (WNW) 10:24:48 435.675
CUBEBUG 2 29 Jan 10:12:54 10:17:30 86° 100° (E) 10:21:55 437.445
NANOSAT C BR1 29 Jan 10:16:54 10:21:07 66° 75° (ENE) 10:25:24 145.865
ZACube-1 29 Jan 10:20:42 10:25:08 73° 101° (E) 10:29:25 437.345
BEESAT 3 29 Jan 10:22:21 10:25:26 20° 47° (NE) 10:28:34 437.485
HUMSAT D 29 Jan 10:24:08 10:28:08 40° 98° (E) 10:32:05 437.325/437.525
DX 1 29 Jan 10:26:41 10:31:07 82° 284° (WNW) 10:35:30 434.975-435.025
COMPASS 1 29 Jan 10:28:07 10:31:01 18° 291° (WNW) 10:33:47 437.405
QB50P2 29 Jan 10:31:09 10:35:26 83° 258° (WSW) 10:39:46 145.880/145.840
FUNcube-1 29 Jan 10:32:40 10:37:07 83° 284° (WNW) 10:41:25 145.935
PHONESAT 2.4 29 Jan 10:34:46 10:38:23 77° 348° (NNW) 10:42:02 2401.200-2431.200
CINEMA 3 29 Jan 10:37:46 10:42:04 31° 290° (WNW) 10:46:07 145.822/145.860
GOMX 1 29 Jan 10:39:22 10:42:45 16° 296° (WNW) 10:45:51 467.674
QB50P1 29 Jan 10:40:33 10:44:47 65° 259° (W) 10:49:04 145.935-145.965
BRITE-PL 29 Jan 10:45:04 10:47:08 12° 299° (WNW) 10:48:51 437.365/2234.400
DELFI C3 29 Jan 10:49:09 10:52:39 28° 289° (WNW) 10:56:06 145.870
AISAT 29 Jan 10:51:03 10:55:34 68° 101° (ESE) 11:00:03 437.250
DOVE 4 29 Jan 10:51:48 10:54:58 16° 296° (WNW) 10:57:51 437.250
BUGSAT 1 29 Jan 10:52:34 10:56:37 61° 260° (W) 11:00:44 437.445
UWE-3 29 Jan 10:53:18 10:57:31 40° 288° (WNW) 11:01:35 435.000/436.395/437.385
ESTCUBE 1 29 Jan 10:54:08 10:58:07 30° 96° (E) 11:02:10 437.505/2401.250
POLYITAN 1 29 Jan 10:55:32 10:59:38 42° 262° (W) 11:03:45 437.675
AAUSAT CUBESAT 2 29 Jan 10:56:11 10:57:11 11° 295° (WNW) 10:57:57 437.432
UNISAT 6 29 Jan 10:59:32 11:03:31 26° 266° (W) 11:07:26 437.425
RS-15 29 Jan 11:05:55 11:13:25 20° 19° (NNE) 11:21:25 29.354- 29.394
Oscar 11 29 Jan 11:07:56 11:10:46 17° 292° (WNW) 11:13:26 145.826/435.025
GONETS M04 29 Jan 11:12:01 11:18:17 22° 65° (ENE) 11:24:54
AIST 1 29 Jan 11:14:02 11:18:12 56° 94° (E) 11:22:23
VERMONT LUNAR 29 Jan 11:14:27 11:17:56 60° 1° (N) 11:21:25 437.305
SPROUT 29 Jan 11:15:53 11:16:44 11° 88° (E) 11:17:53 437.525
POPSAT HIP 1 29 Jan 11:16:11 11:19:49 26° 265° (W) 11:23:22 437.405
DUCHIFAT 1 29 Jan 11:18:58 11:22:29 24° 266° (W) 11:25:57 145.980
VELOX 1 29 Jan 11:19:23 11:23:50 60° 286° (WNW) 11:28:14 145.980
CUBEBUG 1 29 Jan 11:27:39 11:32:06 69° 101° (E) 11:36:32 437.445
50 SAT 29 Jan 11:36:03 11:39:47 35° 288° (WNW) 11:43:26 437.505
ANTELSAT 29 Jan 11:38:45 11:40:00 11° 272° (W) 11:40:55 437.575/2403.000
SO-50 29 Jan 11:38:54 11:42:38 23° 314° (NW) 11:46:22 436.795
AIST 2 29 Jan 11:41:26 11:45:34 45° 55° (NE) 11:49:38 435.215
UKube-1 29 Jan 11:43:51 11:46:03 13° 295° (WNW) 11:48:02 .
BEESAT 2 29 Jan 11:45:35 11:49:44 65° 242° (WSW) 11:53:47 435.950
TISAT 1 29 Jan 11:50:38 11:54:16 27° 95° (E) 11:57:57 437.305
BEESAT 3 29 Jan 11:59:53 12:03:45 38° 245° (WSW) 12:07:32 437.485
ZACube-1 29 Jan 12:00:16 12:00:56 10° 296° (WNW) 12:01:21 437.345
HUMSAT D 29 Jan 12:01:00 12:03:38 16° 293° (WNW) 12:06:06 437.325/437.525
PHONESAT 2.4 29 Jan 12:13:31 12:17:08 65° 5° (N) 12:20:46 2401.200-2431.200
PCSat 29 Jan 12:14:27 12:17:40 16° 44° (NE) 12:21:02 145.827
Oscar 19 29 Jan 12:16:50 12:21:30 36° 70° (ENE) 12:26:15 437.125/150
AISAT 29 Jan 12:30:01 12:31:41 12° 296° (WNW) 12:33:06 437.250
ESTCUBE 1 29 Jan 12:31:15 12:34:54 24° 291° (WNW) 12:38:27 437.505/2401.250
BEESAT 29 Jan 12:33:39 12:35:11 12° 89° (E) 12:37:02 436.000
